[[{"header":{"parameterUnit":"m.s-1","parameterCategory":1,"la1":30.2991,"la2":30.254,"lo1":-89.0895,"lo2":-89.0444,"dy":0.0017,"dx":0.0017,"nx":28,"ny":28,"refTime":"2025-12-21T03:00:00:Z","depth":0,"parameterNumber":2,"parameterNumberName":"U-component_of_WINDS"},"data":[0,0,0,0,0,0,0,0,0,0,0,0,0,0,0,0,0,0,0,0,0,0,0,0,0,0,0,0,0,0,0,0,0,0,0,0,0,0,0,0,0,0,0,0,0,0,0,0,0,0,0,0,0,0,0,0,0,0,-1.4204,-1.4203,0,-1.4168,-1.4168,-1.4168,-1.4124,-1.4123,-1.4123,-1.4122,-1.4087,-1.4087,-1.4086,0,0,0,0,0,0,0,0,0,0,0,0,0,-1.4235,-1.4234,-1.4204,-1.4203,-1.4203,-1.4168,-1.4168,-1.4167,-1.4124,-1.4123,-1.4123,-1.4122,-1.4087,-1.4087,-1.4086,0,0,0,0,0,0,0,0,0,0,0,0,0,-1.4213,-1.4234,-1.4204,-1.4177,-1.4174,-1.4169,-1.4168,-1.4167,-1.4124,-1.4123,-1.4122,-1.4121,-1.4087,-1.4087,-1.4086,-1.4104,0,0,-1.4085,-1.4085,0,0,0,0,0,0,0,0,-1.4214,-1.4212,-1.4181,-1.4179,-1.4176,-1.415,-1.4166,-1.4146,-1.4125,-1.4143,-1.4122,-1.4121,-1.4109,-1.4106,-1.4102,-1.4103,-1.4101,-1.4085,-1.4085,-1.4084,-1.4084,0,0,0,0,0,0,0,-1.4216,-1.4213,-1.419,-1.4181,-1.4178,-1.4167,-1.4163,-1.4162,-1.4132,-1.4142,-1.4138,-1.4135,-1.4107,-1.4103,-1.4101,-1.41,-1.4085,-1.4084,-1.4084,-1.4084,-1.4114,-1.4115,0,0,0,0,0,0,-1.4221,-1.4214,-1.4191,-1.4189,-1.4193,-1.4168,-1.4163,-1.4159,-1.4132,-1.4127,-1.4136,-1.4133,-1.4104,-1.4101,-1.4099,-1.4118,-1.4084,-1.4084,-1.4084,-1.4113,-1.4114,-1.4115,0,0,0,0,0,0,-1.4222,-1.4219,-1.4192,-1.4201,-1.4196,-1.4168,-1.4164,-1.4159,-1.4154,-1.4128,-1.4122,-1.4137,-1.4103,-1.41,-1.4103,-1.4116,-1.4084,-1.4083,-1.4112,-1.4113,-1.4115,-1.4156,0,0,0,0,0,0,-1.4223,-1.422,-1.4226,-1.4201,-1.4196,-1.4196,-1.4165,-1.4159,-1.4154,-1.415,-1.4127,-1.4122,-1.4102,-1.4104,-1.4103,-1.4115,-1.4083,-1.411,-1.4113,-1.4114,-1.4154,-1.4159,-1.4164,0,0,0,0,0,-1.4224,-1.4239,-1.4226,-1.4224,-1.4203,-1.4197,-1.4194,-1.417,-1.4155,-1.4161,-1.4144,-1.4123,-1.4116,-1.4105,-1.4103,-1.4115,-1.4109,-1.4112,-1.4114,-1.4151,-1.4158,-1.4164,0,0,0,0,0,0,-1.4267,-1.4235,-1.4221,-1.4228,-1.4216,-1.419,-1.4197,-1.4178,-1.417,-1.4166,-1.4137,-1.4133,-1.4139,-1.4128,-1.4116,-1.4132,-1.4109,-1.4112,-1.4138,-1.4145,-1.415,-1.4152,-1.4083,0,0,0,0,0,-1.4277,-1.4274,-1.4247,-1.4257,-1.4251,-1.4225,-1.4222,-1.4204,-1.419,-1.4184,-1.4167,-1.4155,-1.415,-1.4147,-1.414,-1.4152,-1.4147,-1.416,-1.4165,-1.417,-1.4171,-1.4177,-1.4182,-1.4123,-1.4123,-1.4123,0,0,-1.4298,-1.4281,-1.4281,-1.4265,-1.4253,-1.4251,-1.4221,-1.422,-1.4218,-1.4184,-1.4186,-1.4173,-1.4157,-1.4165,-1.4168,-1.4156,-1.4187,-1.4173,-1.4176,-1.4176,-1.418,-1.4185,-1.419,-1.4125,-1.4125,-1.4124,0,0,-1.4335,-1.4322,-1.4328,-1.4317,-1.4299,-1.4282,-1.4283,-1.426,-1.4251,-1.4252,-1.4226,-1.4224,-1.4216,-1.4206,-1.4199,-1.4234,-1.4214,-1.4233,-1.4259,-1.4264,-1.4269,-1.4273,-1.4284,-1.4289,-1.4235,-1.4235,-1.4235,0,-1.4363,-1.4359,-1.4333,-1.4334,-1.4328,-1.4297,-1.4303,-1.4294,-1.4275,-1.4272,-1.4259,-1.4248,-1.4235,-1.424,-1.4248,-1.4244,-1.4245,-1.4234,-1.427,-1.4274,-1.4277,-1.4288,-1.4293,-1.4237,-1.4237,-1.4237,-1.4236,0,-1.4394,-1.4392,-1.4399,-1.4381,-1.4376,-1.438,-1.4355,-1.4353,-1.4337,-1.4321,-1.4323,-1.4307,-1.4296,-1.4297,-1.4281,-1.4299,-1.4292,-1.4276,-1.4252,-1.4286,-1.4295,-1.4299,-1.424,-1.424,-1.4239,-1.4238,0,0,-1.4456,-1.4425,-1.4427,-1.4419,-1.4398,-1.4396,-1.4398,-1.4388,-1.4386,-1.4375,-1.4377,-1.4371,-1.4355,-1.4348,-1.4331,-1.4336,-1.4364,-1.4318,-1.4317,-1.4326,-1.4382,-1.4394,-1.44,-1.4351,-1.4352,-1.4352,-1.4384,0,-1.4488,-1.449,-1.4467,-1.4475,-1.4472,-1.4444,-1.4446,-1.4434,-1.442,-1.4416,-1.44,-1.4396,-1.4376,-1.4372,-1.4376,-1.4359,-1.4374,-1.4357,-1.4352,-1.4352,-1.4355,-1.4405,-1.4417,-1.4447,-1.4387,-1.4388,-1.4388,0,-1.4526,-1.4516,-1.4524,-1.4502,-1.45,-1.4502,-1.4491,-1.4488,-1.4474,-1.4463,-1.4456,-1.4436,-1.4438,-1.4417,-1.4418,-1.4407,-1.4404,-1.4396,-1.4397,-1.4394,-1.4371,-1.4402,-1.4456,-1.446,-1.4394,-1.4394,-1.4393,0,-1.4569,-1.4558,-1.4561,-1.4555,-1.453,-1.4532,-1.4522,-1.4507,-1.4502,-1.4493,-1.4489,-1.4481,-1.4476,-1.447,-1.4449,-1.4436,-1.4453,-1.4431,-1.4444,-1.4445,-1.4448,-1.4447,-1.45,-1.4448,-1.4448,-1.4448,-1.4448,0,-1.4607,-1.4612,-1.458,-1.4582,-1.4587,-1.4562,-1.4568,-1.4555,-1.4542,-1.4541,-1.4517,-1.4516,-1.4489,-1.4486,-1.447,-1.4473,-1.4472,-1.4463,-1.4458,-1.4464,-1.4465,-1.4461,-1.4458,-1.4449,-1.4449,-1.4448,-1.4448,0,-1.4655,-1.4634,-1.4635,-1.4611,-1.4606,-1.4611,-1.4591,-1.4592,-1.4577,-1.4576,-1.4574,-1.455,-1.4545,-1.4524,-1.4515,-1.4504,-1.4512,-1.4504,-1.4517,-1.4514,-1.4528,-1.4527,-1.4579,-1.4584,-1.453,-1.453,-1.4531,0,-1.468,-1.4683,-1.466,-1.4658,-1.4648,-1.4645,-1.464,-1.4615,-1.4611,-1.4596,-1.4599,-1.4592,-1.4585,-1.4578,-1.4561,-1.4553,-1.4544,-1.4563,-1.4542,-1.4548,-1.4543,-1.4542,-1.4543,-1.4567,-1.4567,-1.4568,-1.4569,0,-1.4726,-1.4715,-1.4709,-1.4699,-1.4694,-1.4685,-1.4675,-1.4674,-1.4647,-1.4644,-1.4639,-1.4633,-1.4623,-1.4617,-1.4606,-1.4597,-1.4578,-1.4575,-1.4578,-1.4583,-1.459,-1.4586,-1.4528,-1.4574,-1.4573,-1.4573,-1.4573,-1.4572,-1.4763,-1.4764,-1.4748,-1.4742,-1.4732,-1.4723,-1.4722,-1.4707,-1.4702,-1.4691,-1.4678,-1.4674,-1.466,-1.4644,-1.4636,-1.4633,-1.4623,-1.4627,-1.4627,-1.4628,-1.4631,-1.4592,-1.4631,-1.4631,-1.4631,-1.4631,-1.4631,0,-1.4807,-1.4795,-1.479,-1.4776,-1.4771,-1.4754,-1.4742,-1.4739,-1.4736,-1.4725,-1.4718,-1.4712,-1.4706,-1.4688,-1.468,-1.4681,-1.4672,-1.468,-1.4679,-1.4677,-1.4641,-1.4639,-1.4687,-1.4687,-1.4687,-1.4687,-1.4687,-1.4687,-1.4829,-1.4831,-1.4818,-1.4815,-1.4803,-1.4799,-1.4793,-1.4785,-1.4776,-1.477,-1.4764,-1.4752,-1.4738,-1.4729,-1.4723,-1.4718,-1.4716,-1.4726,-1.4718,-1.4685,-1.4679,-1.4674,-1.4672,-1.4726,-1.4726,-1.4753,-1.4754,-1.4754]},{"header":{"parameterUnit":"m.s-1","parameterCategory":1,"la1":30.2991,"la2":30.254,"lo1":-89.0895,"lo2":-89.0444,"dy":0.0017,"dx":0.0017,"nx":28,"ny":28,"refTime":"2025-12-21T03:00:00:Z","depth":0,"parameterNumber":3,"parameterNumberName":"V-component_of_WINDS"},"data":[0,0,0,0,0,0,0,0,0,0,0,0,0,0,0,0,0,0,0,0,0,0,0,0,0,0,0,0,0,0,0,0,0,0,0,0,0,0,0,0,0,0,0,0,0,0,0,0,0,0,0,0,0,0,0,0,0,0,1.426,1.426,0,1.4268,1.4268,1.4268,1.4263,1.4263,1.4262,1.4262,1.427,1.4271,1.4271,0,0,0,0,0,0,0,0,0,0,0,0,0,1.424,1.424,1.426,1.426,1.426,1.4268,1.4268,1.4268,1.4263,1.4263,1.4262,1.4262,1.427,1.4271,1.4271,0,0,0,0,0,0,0,0,0,0,0,0,0,1.4248,1.4241,1.426,1.4258,1.4258,1.4268,1.4268,1.4268,1.4263,1.4263,1.4262,1.4262,1.427,1.4271,1.4271,1.4282,0,0,1.4273,1.4273,0,0,0,0,0,0,0,0,1.4248,1.4249,1.4258,1.4258,1.4258,1.4264,1.4264,1.4273,1.4263,1.4261,1.4262,1.4262,1.4268,1.4269,1.4271,1.4283,1.4283,1.4273,1.4274,1.4274,1.4274,0,0,0,0,0,0,0,1.4247,1.4249,1.4263,1.4259,1.4259,1.4257,1.4258,1.4266,1.4267,1.4261,1.4261,1.4262,1.4268,1.4271,1.4272,1.4283,1.4273,1.4274,1.4274,1.4274,1.4304,1.4305,0,0,0,0,0,0,1.4247,1.4248,1.4263,1.4263,1.4252,1.4258,1.4259,1.4263,1.4267,1.4267,1.4262,1.4262,1.427,1.4271,1.4272,1.4286,1.4274,1.4275,1.4275,1.4304,1.4304,1.4305,0,0,0,0,0,0,1.4246,1.4248,1.4262,1.4256,1.4257,1.4259,1.4263,1.4263,1.4265,1.4267,1.4268,1.4265,1.427,1.4271,1.428,1.4286,1.4275,1.4275,1.4304,1.4304,1.4305,1.4313,0,0,0,0,0,0,1.4246,1.4248,1.4252,1.4256,1.4258,1.427,1.4263,1.4263,1.4267,1.4266,1.427,1.427,1.427,1.4279,1.4281,1.4286,1.4276,1.4303,1.4304,1.4305,1.4312,1.4313,1.4315,0,0,0,0,0,1.4245,1.4254,1.4252,1.4254,1.4263,1.427,1.4272,1.4271,1.4267,1.4271,1.4273,1.427,1.4285,1.428,1.4282,1.4288,1.4303,1.4304,1.4304,1.4311,1.4313,1.4315,0,0,0,0,0,0,1.4251,1.4254,1.4253,1.4263,1.4266,1.427,1.4275,1.4273,1.4278,1.4277,1.4276,1.4277,1.4286,1.4288,1.4282,1.4299,1.4293,1.4294,1.4298,1.4299,1.4301,1.43,1.4276,0,0,0,0,0,1.4253,1.4259,1.4262,1.4271,1.4273,1.4274,1.4277,1.4276,1.428,1.4281,1.4283,1.4287,1.4292,1.4296,1.4301,1.4312,1.4313,1.4317,1.4319,1.432,1.4321,1.4327,1.4329,1.4308,1.4308,1.4308,0,0,1.4258,1.4261,1.4265,1.4272,1.4275,1.4281,1.4275,1.4281,1.4286,1.4282,1.4291,1.4292,1.4296,1.4306,1.4311,1.4308,1.4327,1.4321,1.4322,1.4323,1.4329,1.4331,1.4332,1.4309,1.4308,1.4308,0,0,1.4271,1.4273,1.4281,1.4284,1.4288,1.4289,1.4291,1.4294,1.4295,1.4304,1.4302,1.4307,1.4316,1.432,1.4322,1.4337,1.4334,1.4338,1.4346,1.4352,1.4354,1.4355,1.4361,1.4363,1.4339,1.4339,1.434,0,1.4277,1.4286,1.4285,1.4293,1.4296,1.4293,1.4301,1.4304,1.4309,1.4312,1.4308,1.4321,1.4323,1.4334,1.4338,1.434,1.4342,1.4338,1.4354,1.4355,1.4357,1.4362,1.4364,1.434,1.434,1.434,1.434,0,1.4293,1.43,1.4306,1.4311,1.4315,1.4323,1.4323,1.4327,1.4327,1.4328,1.4337,1.434,1.4346,1.4348,1.4347,1.4359,1.4357,1.4354,1.4348,1.4359,1.4364,1.4366,1.4341,1.4341,1.434,1.434,0,0,1.431,1.4315,1.4317,1.432,1.4325,1.433,1.4337,1.4343,1.4347,1.4351,1.4358,1.4366,1.4363,1.4366,1.4365,1.4371,1.4383,1.4367,1.4367,1.437,1.4396,1.4399,1.4402,1.4381,1.4381,1.4382,1.4396,0,1.4323,1.4336,1.4336,1.4348,1.4354,1.4352,1.4358,1.4362,1.4363,1.4368,1.437,1.4376,1.4371,1.4373,1.4378,1.438,1.4388,1.4379,1.4387,1.4387,1.4387,1.4404,1.4407,1.4421,1.4398,1.4398,1.4399,0,1.434,1.4345,1.4358,1.4362,1.4365,1.437,1.4376,1.4381,1.4385,1.4386,1.439,1.4388,1.4396,1.439,1.4401,1.4395,1.4398,1.4399,1.44,1.4401,1.4394,1.4406,1.4425,1.4427,1.4402,1.4401,1.4401,0,1.4351,1.4361,1.437,1.4373,1.4378,1.4382,1.4384,1.4388,1.4392,1.4396,1.4399,1.4405,1.4408,1.4412,1.4413,1.4408,1.4424,1.4417,1.4425,1.4425,1.4428,1.4428,1.4448,1.443,1.443,1.443,1.443,0,1.4366,1.4374,1.4375,1.4381,1.439,1.439,1.4399,1.4401,1.4404,1.441,1.4408,1.4414,1.4414,1.4419,1.442,1.4429,1.443,1.4431,1.4431,1.4431,1.4431,1.4434,1.4433,1.443,1.443,1.443,1.443,0,1.4381,1.4381,1.4391,1.4395,1.4396,1.4403,1.4406,1.4412,1.4413,1.4421,1.4422,1.4424,1.4431,1.4432,1.4439,1.444,1.4451,1.445,1.445,1.445,1.4457,1.4456,1.448,1.4483,1.4462,1.4462,1.4462,0,1.439,1.4397,1.4401,1.4405,1.4408,1.4414,1.4418,1.4418,1.4422,1.4427,1.4432,1.4439,1.4444,1.4455,1.4457,1.4463,1.4463,1.447,1.4463,1.4464,1.4463,1.4463,1.4464,1.4472,1.4472,1.4472,1.4472,0,1.4408,1.4408,1.4414,1.442,1.4425,1.4429,1.4434,1.4437,1.4437,1.4442,1.4449,1.4454,1.4462,1.4468,1.4474,1.4477,1.4475,1.4474,1.4477,1.4477,1.4477,1.4478,1.4454,1.4474,1.4474,1.4474,1.4474,1.4474,1.442,1.4426,1.443,1.4437,1.444,1.4444,1.445,1.4452,1.4458,1.4464,1.4464,1.4472,1.4476,1.4484,1.4487,1.4493,1.449,1.4493,1.4494,1.4495,1.4496,1.4476,1.4494,1.4494,1.4494,1.4494,1.4494,0,1.4438,1.4441,1.4447,1.4453,1.4459,1.4456,1.4461,1.4466,1.4473,1.4477,1.4482,1.449,1.4497,1.4499,1.4506,1.451,1.451,1.4512,1.4512,1.4513,1.4498,1.4495,1.4512,1.4512,1.4512,1.4512,1.4512,1.4512,1.4448,1.4458,1.4459,1.447,1.4472,1.448,1.4483,1.4487,1.449,1.45,1.4505,1.4507,1.451,1.4517,1.4523,1.4524,1.4526,1.4529,1.4529,1.4515,1.4514,1.4512,1.451,1.453,1.453,1.4544,1.4544,1.4544]}]]